Regional Weather Roundup
Issued by NWS

Home | Current Version | Previous Version | Text Only | Print | Product List | Glossary Off
Versions: 1 2 3 4 5 6 7 8 9 10 11 12 13 14 15 16 17 18 19 20 21 22 23 24 25 26 27 28 29 30 31 32 33 34 35 36 37 38 39 40 41 42 43 44 45 46 47 48 49 50

387
ASUS45 KCYS 251010
RWRWY

WYOMING REGIONAL WEATHER ROUNDUP
NATIONAL WEATHER SERVICE CHEYENNE WY
400 AM MDT FRI MAY 25 2018

NOTE:  "FAIR" INDICATES FEW OR NO CLOUDS BELOW 12,000 FEET
WITH NO SIGNIFICANT WEATHER AND/OR OBSTRUCTIONS TO VISIBILITY.

WYZ001-251100-
YELLOWSTONE NATIONAL PARK

CITY           SKY/WX    TMP DP  RH WIND       PRES   REMARKS
LK YELLOWSTONE NOT AVBL
W YELLOWSTONE  NOT AVBL

$$
WYZ002>013-054>058-071-098>099-251100-
NORTHERN WYOMING

CITY           SKY/WX    TMP DP  RH WIND       PRES   REMARKS
JACKSON        FAIR      38  38 100 CALM      30.21S FOG
CODY           FAIR      57  44  62 SW7       30.09R
GREYBULL       FAIR      54  50  86 CALM      30.01S
WORLAND        FAIR      52  51  97 S8        30.03S
SHERIDAN       FAIR      51  47  86 VRB3      30.00S
BUFFALO        FAIR      57  46  66 SW7       30.05S
GILLETTE       MOCLDY    49  46  90 S5        30.01R
NEWCASTLE      FAIR      52  45  76 CALM      30.00R

$$
WYZ014>020-022>026-101>103-251100-
CENTRAL WYOMING

CITY           SKY/WX    TMP DP  RH WIND       PRES   REMARKS
BIG PINEY      FAIR      40  38  93 N8        30.22F WCI  34
PINEDALE       FAIR      36  34  93 W7        30.24S WCI  30
DUBOIS         FAIR      41  36  81 W10       30.20S
LANDER         FAIR      51  42  71 N3        30.10F
RIVERTON       FAIR      53  43  68 W13       30.10F
CASPER         FAIR      50  45  83 W8        30.10R
DOUGLAS        FAIR      48  47  96 CALM      30.08R

$$
WYZ021-027>030-104>119-251100-
SOUTHERN WYOMING

CITY           SKY/WX    TMP DP  RH WIND       PRES   REMARKS
EVANSTON       FAIR      53  40  61 NE7       30.19F
FORT BRIDGER   FAIR      51  38  59 S3        30.24S
ROCK SPRINGS   FAIR      49  38  65 SE6       30.18F
DIXON          FAIR      43  34  72 E6        30.22R
RAWLINS        FAIR      42  34  73 E5        30.19S
SARATOGA       FAIR      43  34  70 SE5       30.23R
LARAMIE        FAIR      42  33  70 S8        30.22S
CHEYENNE       FAIR      50  40  68 W9        30.14F
TORRINGTON     FAIR      51  50  96 SW3       30.01S
PINE BLUFFS    FAIR      45  45 100 S5        30.10R

$$




USA.gov is the U.S. government's official web portal to all federal, state and local government web resources and services.